星链-11556 (STARLINK-11556)

导读

STARLINK-11556是美国太空探索技术公司SpaceX星链星座的卫星,于2025年1月27日发射入轨,属于星链互联网卫星项目的组网卫星。星链计划旨在构建全球卫星互联网星座,为全球偏远地区、海洋等场景提供低延迟高速网络接入服务,该卫星持续为全球互联网覆盖扩容贡献组网能力。

Basic Information
目录编号:
62838
目录名称:
STARLINK-11556
国际标识:
2025-019K
轨道中心:
EARTH
卫星名称:
星链-11556
卫星全名:
星链-11556 (STARLINK-11556)
卫星状态:
在轨 (已飞行586 天)
发射日期:
2025-01-27 UTC
国别 :
美国 (US)
星等 :
--
Orbit Information
数据来源 国际轨道数据
星历时间: 2026-09-05T04:54:15+0800
11小时前
查看轨道信息
半长轴: 6734.466km
偏心率: 0.0002188
轨道倾角: 43.002°
近地点辐角 276.302°
升交点赤经 305.725°
平近点角 83.760°
近地点: 354.855km
远地点: 357.803km
周期: 91.667分钟
每日圈数: 15.708983
Detailed Information
固有亮度:
5
最大亮度:
2.5
卫星平台:
Starlink V1.0
覆盖范围:
全球
运营商:
太空探索技术公司
运营商所在国:
美国
制造商(研发单位):
太空探索技术公司
制造商所在国:
美国
使用方式:
暂无
Satellite Introduction
Starlink 计划是 SpaceX 推出的全球卫星互联网项目,通过发射低轨道卫星,为全球尤其是偏远地区提供高速、低延迟的互联网服务。自 2019 年起,Starlink 已部署数千颗卫星,旨在缩小全球数字鸿沟,推动互联网普及。该项目还为军事、航空等行业提供通信支持,带来广泛经济效益。
2D Orbit Map
3D Orbit Map
Orbit Altitude Analysis Chart
Orbit Inclination Analysis Chart
Orbit Comprehensive Analysis Chart
View Comprehensive Chart
Conjunction Data List
Event ID Objects TCA Miss Dist (km) Collision Risk Probability Collision Risk Index (CRI) Action
CDM_260906-104606-283806-305721
2026-09-06T
10:46:06+0000
0.820 km
远距离
2.80807E-5 中风险 0.64
CDM_260903-235106-283806-331021
2026-09-03T
23:51:16+0000
1.820 km
极远距离
1.542995E-6 低风险 0.39
CDM_260906-181805-425106-283821
OBJECT A (54251)
2026-09-06T
18:18:50+0000
2.576 km
极远距离
1.504141E-6 低风险 0.39
CDM_260904-003706-283806-331021
2026-09-04T
00:37:02+0000
2.191 km
极远距离
1.005144E-6 低风险 0.35
CDM_260908-104506-283406-283821
2026-09-08T
10:45:27+0000
1.611 km
极远距离
6.090596E-7 极低风险 0.31